Skip Page Navigation
NASA JPL Caltech
NASA Logo - Jet Propulsion Laboratory + View the NASA Portal
+ Near-Earth Object (NEO) Program
Search JPL
JPL Home Earth Solar System Stars & Galaxies Technology
JPL Solar System Dynamics
BODIES ORBITS EPHEMERIDES TOOLS PHYSICAL DATA DISCOVERY FAQ SITE MAP
JPL Small-Body Database Browser
Search: [ help ]  
163026 (2001 XR30)
Classification: Apollo [NEO, PHA]          SPK-ID: 2163026
Ephemeris | Orbit Diagram | Orbital Elements | Physical Parameters | Discovery Circumstances | Close-Approach Data ]

[ hide orbit diagram ]
Orbit Diagram
Note: Make sure you have Java enabled on your browser to see the applet. This applet is provided as a 3D orbit visualization tool. The applet was implemented using 2-body methods, and hence should not be used for determining accurate long-term trajectories (over several years or decades) or planetary encounter circumstances. For accurate long-term ephemerides, please instead use our Horizons system.
Orbit Viewer

Additional Notes: the orbits shown in the applet are color coded. The planets are white lines, and the asteroid/comet is a blue line. The bright white line indicates the portion of the orbit that is above the ecliptic plane, and the darker portion is below the ecliptic plane. Likewise for the asteroid/comet orbit, the light blue indicates the portion above the ecliptic plane, and the dark blue the portion below the ecliptic plane.

Orbit Viewer applet originally written and kindly provided by Osamu Ajiki (AstroArts), and further modified by Ron Baalke (JPL).


Orbital Elements at Epoch 2456400.5 (2013-Apr-18.0) TDB
Reference: JPL 11 (heliocentric ecliptic J2000)
 Element Value Uncertainty (1-sigma)   Units 
e .3652394535028016 2.3344e-07  
a 1.296973090634923 3.4752e-08 AU
q .823267347803584 2.9496e-07 AU
i 11.85881231206573 3.608e-05 deg
node 247.9281515294767 7.2708e-05 deg
peri 294.3870825081676 0.00010519 deg
M 183.7676244041304 7.1524e-05 deg
tp 2456664.605879711579
(2014-Jan-07.10587971)
0.00011627 JED
period 539.5042560976342
1.48
2.1684e-05
5.937e-08
d
yr
n .6672792585622359 2.682e-08 deg/d
Q 1.770678833466262 4.7445e-08 AU
  Orbit Determination Parameters
   # obs. used (total)      63  
   data-arc span      1096 days (3.00 yr)  
   first obs. used      2001-12-11  
   last obs. used      2004-12-11  
   planetary ephem.      DE405  
   SB-pert. ephem.      SB405-CPV-2  
   condition code      0  
   fit RMS      .63772  
   data source      ORB  
   producer      Otto Matic  
   solution date      2013-Apr-29 15:39:52  

Additional Information
 Earth MOID = .0214656 AU 
 T_jup = 4.922 
[ show covariance matrix ]

Ephemeris | Orbit Diagram | Orbital Elements | Physical Parameters | Discovery Circumstances | Close-Approach Data ]

Physical Parameter Table
Parameter Symbol Value Units Sigma Reference Notes
absolute magnitude H 20.742 mag .82304 11 autocmod 2.5c

163026 (2001 XR30)          Discovered 2001-Dec-11 by LINEAR at Socorro (704)
Reference: 20070926/Numbers.arcLast Updated: 2007-09-30

[ show close-approach data ]
Ephemeris | Orbit Diagram | Orbital Elements | Physical Parameters | Discovery Circumstances | Close-Approach Data ]
ABOUT SSD CREDITS/AWARDS PRIVACY/COPYRIGHT GLOSSARY LINKS
FirstGov 2013-May-23 09:52 UT
(server date/time)  
NASA Home Page
Site Manager:   Donald K. Yeomans
Webmaster  Alan B. Chamberlin